JST221 YMML-NZQN

Flight info

Callsign JST221
Flight time N/A
Altitude 35000
Route CORRS1 CORRS Y260 ECKHO L508 OMKIN P766 ADKOS UBDAM6B
Aircraft A320/M-SDE3FGHIRWY/LB1

Departure

Time 2026-05-01 09:44
Airport Melbourne Airport (YMML)

Arrival

Time N/A
Airport Queenstown Airport (NZQN)
Time Latitude Longitude Altitude Speed Heading
2026-05-01 09:14 -37.67348 144.84630 383 ft 0 kts 351°
2026-05-01 09:26 -37.67372 144.84635 382 ft 3 kts 351°
2026-05-01 09:26 -37.67395 144.84639 382 ft 3 kts 349°
2026-05-01 09:27 -37.67437 144.84665 381 ft 3 kts 299°
2026-05-01 09:27 -37.67441 144.84675 382 ft 0 kts 272°
2026-05-01 09:32 -37.67441 144.84671 381 ft 4 kts 268°
2026-05-01 09:33 -37.67446 144.84603 380 ft 10 kts 261°
2026-05-01 09:33 -37.67465 144.84485 380 ft 19 kts 260°
2026-05-01 09:33 -37.67660 144.84358 370 ft 29 kts 171°
2026-05-01 09:34 -37.67832 144.84335 365 ft 23 kts 226°
2026-05-01 09:34 -37.67868 144.84191 359 ft 12 kts 265°
2026-05-01 09:34 -37.67873 144.84138 359 ft 0 kts 262°
2026-05-01 09:41 -37.67873 144.84135 364 ft 3 kts 262°
2026-05-01 09:42 -37.67887 144.84041 358 ft 13 kts 258°
2026-05-01 09:42 -37.67853 144.83964 360 ft 11 kts 342°
2026-05-01 09:42 -37.67835 144.83961 361 ft 0 kts 353°
2026-05-01 09:43 -37.67253 144.83859 380 ft 101 kts 352°
2026-05-01 09:43 -37.66402 144.83697 408 ft 144 kts 352°
2026-05-01 09:43 -37.65314 144.83483 602 ft 166 kts 352°
2026-05-01 09:44 -37.63151 144.83096 1824 ft 156 kts 354°
2026-05-01 09:44 -37.62067 144.82919 2269 ft 157 kts 355°
2026-05-01 09:44 -37.60950 144.82708 2545 ft 168 kts 352°
2026-05-01 09:45 -37.59763 144.82481 2851 ft 177 kts 358°
2026-05-01 09:45 -37.57267 144.83391 3160 ft 205 kts 25°
2026-05-01 09:45 -37.55919 144.84230 3285 ft 227 kts 25°
2026-05-01 09:46 -37.54454 144.85134 3572 ft 240 kts 25°
2026-05-01 09:46 -37.52942 144.86063 4070 ft 243 kts 24°
2026-05-01 09:46 -37.51414 144.87001 4605 ft 245 kts 24°
2026-05-01 09:46 -37.49869 144.87949 5116 ft 248 kts 24°
2026-05-01 09:47 -37.48315 144.88909 5623 ft 250 kts 26°
2026-05-01 09:47 -37.47001 144.90371 6073 ft 260 kts 53°
2026-05-01 09:47 -37.46387 144.92551 6549 ft 274 kts 81°
2026-05-01 09:47 -37.46466 144.94155 6842 ft 283 kts 99°
2026-05-01 09:48 -37.47388 144.96378 7263 ft 296 kts 131°
2026-05-01 09:48 -37.49129 144.97769 7687 ft 303 kts 164°
2026-05-01 09:48 -37.51236 144.98243 8125 ft 305 kts 172°
2026-05-01 09:48 -37.53324 144.98579 8581 ft 307 kts 173°
2026-05-01 09:49 -37.55473 144.98899 9048 ft 307 kts 174°
2026-05-01 09:49 -37.57603 144.99215 9506 ft 308 kts 173°
2026-05-01 09:49 -37.59715 144.99536 10129 ft 312 kts 173°
2026-05-01 09:49 -37.61919 144.99879 10481 ft 331 kts 173°
2026-05-01 09:50 -37.64315 145.00259 10656 ft 354 kts 173°
2026-05-01 09:50 -37.66783 145.00746 10817 ft 375 kts 165°
2026-05-01 09:50 -37.69255 145.01922 11308 ft 383 kts 151°
2026-05-01 09:50 -37.71479 145.03790 11948 ft 386 kts 138°
2026-05-01 09:51 -37.73324 145.06258 12631 ft 388 kts 124°
2026-05-01 09:51 -37.74676 145.09196 13298 ft 388 kts 111°
2026-05-01 09:51 -37.75766 145.12333 13914 ft 391 kts 111°
2026-05-01 09:51 -37.76855 145.15496 14436 ft 395 kts 111°
2026-05-01 09:52 -37.77953 145.18696 14941 ft 398 kts 111°
2026-05-01 09:52 -37.79055 145.21912 15430 ft 401 kts 111°
2026-05-01 09:52 -37.80170 145.25161 15911 ft 404 kts 111°
2026-05-01 09:52 -37.81297 145.28439 16398 ft 407 kts 111°
2026-05-01 09:53 -37.82431 145.31732 16874 ft 410 kts 111°
2026-05-01 09:53 -37.83574 145.35058 17362 ft 414 kts 111°
2026-05-01 09:53 -37.84723 145.38414 17852 ft 417 kts 111°
2026-05-01 09:53 -37.85875 145.41791 18353 ft 421 kts 111°
2026-05-01 09:54 -37.87040 145.45210 18795 ft 424 kts 110°
2026-05-01 09:54 -37.88211 145.48644 19234 ft 427 kts 111°
2026-05-01 09:54 -37.89398 145.52103 19679 ft 430 kts 111°
2026-05-01 09:54 -37.90590 145.55584 20126 ft 432 kts 111°
2026-05-01 09:55 -37.91783 145.59089 20565 ft 435 kts 110°
2026-05-01 09:55 -37.92983 145.62616 20984 ft 437 kts 111°
2026-05-01 09:55 -37.94251 145.66135 21393 ft 440 kts 112°
2026-05-01 09:55 -37.95586 145.69638 21802 ft 443 kts 114°
2026-05-01 09:56 -37.96962 145.73140 22207 ft 445 kts 114°
2026-05-01 09:56 -37.98354 145.76659 22591 ft 448 kts 114°
2026-05-01 09:56 -37.99747 145.80196 22968 ft 450 kts 114°
2026-05-01 09:56 -38.01133 145.83764 23346 ft 452 kts 113°
2026-05-01 09:57 -38.02505 145.87357 23722 ft 454 kts 113°
2026-05-01 09:57 -38.03869 145.90978 24041 ft 456 kts 113°
2026-05-01 09:57 -38.05239 145.94621 24347 ft 458 kts 113°
2026-05-01 09:57 -38.06616 145.98277 24641 ft 460 kts 113°
2026-05-01 09:58 -38.08003 146.01944 24948 ft 462 kts 113°
2026-05-01 09:58 -38.09396 146.05628 25260 ft 464 kts 114°
2026-05-01 09:58 -38.10796 146.09324 25571 ft 466 kts 114°
2026-05-01 09:58 -38.12196 146.13041 25908 ft 466 kts 114°
2026-05-01 09:59 -38.13571 146.16707 26342 ft 465 kts 114°
2026-05-01 09:59 -38.14956 146.20409 26774 ft 464 kts 114°
2026-05-01 09:59 -38.16341 146.24104 27214 ft 463 kts 114°
2026-05-01 09:59 -38.17747 146.27841 27652 ft 462 kts 114°
2026-05-01 10:00 -38.19131 146.31525 28086 ft 461 kts 115°
2026-05-01 10:00 -38.20512 146.35202 28533 ft 460 kts 115°
2026-05-01 10:00 -38.21869 146.38828 28979 ft 459 kts 115°
2026-05-01 10:00 -38.23229 146.42492 29439 ft 458 kts 115°
2026-05-01 10:01 -38.24587 146.46156 29898 ft 457 kts 115°
2026-05-01 10:01 -38.25946 146.49819 30354 ft 456 kts 115°
2026-05-01 10:01 -38.27301 146.53460 30726 ft 455 kts 115°
2026-05-01 10:01 -38.28655 146.57103 31092 ft 455 kts 115°
2026-05-01 10:02 -38.30006 146.60745 31450 ft 455 kts 115°
2026-05-01 10:02 -38.31357 146.64392 31793 ft 455 kts 115°
2026-05-01 10:02 -38.32710 146.68031 32158 ft 454 kts 115°
2026-05-01 10:02 -38.34065 146.71676 32527 ft 454 kts 115°
2026-05-01 10:03 -38.35404 146.75305 32903 ft 454 kts 115°
2026-05-01 10:03 -38.36746 146.78945 33266 ft 453 kts 116°
2026-05-01 10:03 -38.38090 146.82581 33619 ft 453 kts 115°
2026-05-01 10:03 -38.39421 146.86211 33982 ft 453 kts 115°
2026-05-01 10:04 -38.40754 146.89856 34312 ft 453 kts 116°
2026-05-01 10:04 -38.42086 146.93490 34605 ft 452 kts 115°
2026-05-01 10:04 -38.43420 146.97127 34870 ft 452 kts 115°
2026-05-01 10:04 -38.44750 147.00759 35132 ft 452 kts 115°
2026-05-01 10:05 -38.46084 147.04408 35251 ft 454 kts 115°
2026-05-01 10:05 -38.47428 147.08081 35277 ft 460 kts 115°
2026-05-01 10:05 -38.50160 147.15582 35276 ft 471 kts 115°
2026-05-01 10:06 -38.52910 147.23140 35274 ft 473 kts 115°
2026-05-01 10:06 -38.55695 147.30809 35275 ft 473 kts 115°
2026-05-01 10:07 -38.58454 147.38432 35274 ft 473 kts 115°
2026-05-01 10:07 -38.61194 147.46028 35276 ft 473 kts 114°
2026-05-01 10:08 -38.65340 147.57552 35283 ft 474 kts 114°
2026-05-01 10:09 -38.68086 147.65223 35290 ft 474 kts 114°
2026-05-01 10:09 -38.70833 147.72900 35293 ft 475 kts 114°
2026-05-01 10:10 -38.73578 147.80590 35293 ft 475 kts 114°
2026-05-01 10:10 -38.77652 147.92081 35294 ft 474 kts 114°
2026-05-01 10:11 -38.80380 147.99781 35295 ft 474 kts 114°
2026-05-01 10:11 -38.83106 148.07480 35296 ft 474 kts 114°
2026-05-01 10:12 -38.85821 148.15189 35298 ft 474 kts 114°
2026-05-01 10:13 -38.89887 148.26755 35302 ft 474 kts 114°
2026-05-01 10:13 -38.92602 148.34477 35305 ft 474 kts 114°
2026-05-01 10:14 -38.96660 148.46075 35306 ft 475 kts 113°
2026-05-01 10:14 -38.99348 148.53818 35310 ft 475 kts 113°
2026-05-01 10:15 -39.02036 148.61580 35312 ft 475 kts 113°
2026-05-01 10:15 -39.04718 148.69349 35315 ft 475 kts 113°
2026-05-01 10:16 -39.07400 148.77121 35315 ft 475 kts 113°
2026-05-01 10:17 -39.11415 148.88799 35318 ft 475 kts 113°
2026-05-01 10:17 -39.15415 149.00481 35324 ft 475 kts 113°
2026-05-01 10:18 -39.19414 149.12182 35326 ft 476 kts 113°
2026-05-01 10:19 -39.22071 149.19990 35329 ft 476 kts 112°
2026-05-01 10:19 -39.24719 149.27825 35327 ft 476 kts 112°
2026-05-01 10:20 -39.28698 149.39575 35333 ft 476 kts 112°
2026-05-01 10:20 -39.31326 149.47425 35333 ft 476 kts 112°
2026-05-01 10:21 -39.35268 149.59146 35340 ft 476 kts 112°
2026-05-01 10:22 -39.39219 149.70942 35340 ft 477 kts 112°
2026-05-01 10:23 -39.43155 149.82761 35349 ft 477 kts 112°